"startDT [UTC]","vpos","CH4 [ppm]","stdev(CH4) [ppm]","CO2 [ppm]","stdev(CO2) [ppm]","H2O [ppm]","stdev(H2O)","p_LGR [torr]","T_LGR [C]","mt1_LGR [us]","mt2_LGR [us]","T_ECpre [C]","T_EC1 [C]","T_EC2 [C]","p_inlet [hPa]","p_in [hPa]","p_out [hPa]","T_inlet [C]","RH_inlet [%]","dwpt_inlet [C]","T_vent [C]","RH_vent [%]","dwpt_vent [C]","flow_vent [l min-1]","flow_inlet [l min-1]","dwpt_sample [C]","T_room [C]"
2012-03-13 00:00:00,0.0,1.9141,0.0011,402.43,0.32,-1.0,0.0,138.17,26.47,24.58,36.26,0.04,-272.73,-272.73,-47,554,-935,19.8,0.6,-43.0,20.1,0.6,-42.1,5.73,2.54,-37.8,25.9
2012-03-13 00:01:00,0.0,1.9131,0.0011,402.42,0.32,-1.0,0.0,138.17,26.47,24.59,36.27,0.04,-272.73,-272.73,-48,554,-935,19.8,0.6,-43.4,20.1,0.6,-42.6,5.73,2.33,-37.8,26.0
2012-03-13 00:02:00,0.0,1.9135,0.0010,402.30,0.28,-1.0,0.0,138.17,26.47,24.59,36.27,0.04,-272.74,-272.74,-47,554,-935,19.8,0.6,-43.4,20.1,0.6,-42.6,5.73,2.44,-37.8,25.9
2012-03-13 00:03:00,0.0,1.9131,0.0011,402.43,0.28,-1.0,0.0,138.16,26.47,24.59,36.26,0.04,-272.73,-272.73,-47,554,-935,19.8,0.6,-43.5,20.1,0.6,-42.5,5.73,2.48,-37.8,25.9
2012-03-13 00:04:00,0.0,1.9131,0.0012,402.35,0.32,-1.0,0.0,138.17,26.46,24.58,36.27,0.04,-272.73,-272.73,-48,554,-935,19.8,0.6,-43.4,20.1,0.6,-42.5,5.73,2.31,-37.8,25.9
2012-03-13 00:05:00,0.0,1.9136,0.0011,402.40,0.31,-1.0,0.0,138.17,26.46,24.59,36.27,0.04,-272.73,-272.74,-47,554,-935,19.8,0.6,-43.4,20.1,0.6,-42.6,5.73,2.54,-37.8,25.8
2012-03-13 00:06:00,0.0,1.9127,0.0012,402.41,0.31,-1.0,0.0,138.17,26.46,24.59,36.26,0.04,-272.73,-272.74,-47,554,-935,19.9,0.6,-43.4,20.1,0.6,-42.4,5.73,2.35,-37.8,25.9
2012-03-13 00:07:00,0.0,1.9131,0.0010,402.43,0.26,-1.0,0.0,138.17,26.45,24.59,36.26,0.04,-272.73,-272.73,-48,554,-935,19.9,0.6,-43.5,20.1,0.6,-42.6,5.73,2.40,-37.8,25.9
2012-03-13 00:08:00,0.0,1.9138,0.0012,402.49,0.30,-1.0,0.0,138.17,26.45,24.59,36.26,0.04,-272.74,-272.73,-47,554,-935,19.8,0.6,-43.5,20.1,0.6,-42.9,5.73,2.51,-37.8,25.8
2012-03-13 00:09:00,0.0,1.9144,0.0010,402.41,0.35,-1.0,0.0,138.17,26.45,24.59,36.26,0.04,-272.73,-272.73,-47,554,-935,19.8,0.6,-43.3,20.1,0.6,-42.6,5.73,2.30,-37.8,25.8
2012-03-13 00:10:00,0.0,1.9141,0.0011,402.43,0.38,-1.0,0.0,138.17,26.44,24.59,36.27,0.04,-272.73,-272.73,-48,554,-935,19.9,0.6,-43.2,20.2,0.6,-42.4,5.73,2.52,-37.8,25.8
2012-03-13 00:11:00,0.0,1.9134,0.0009,402.39,0.26,-1.0,0.0,138.17,26.44,24.58,36.26,0.04,-272.73,-272.73,-47,555,-935,19.9,0.6,-43.4,20.2,0.6,-42.5,5.73,2.39,-37.8,25.8
2012-03-13 00:12:00,0.0,1.9124,0.0009,402.33,0.30,-1.0,0.0,138.17,26.44,24.59,36.26,0.04,-272.73,-272.73,-47,554,-935,19.8,0.6,-43.4,20.2,0.6,-42.4,5.73,2.37,-37.7,25.9
2012-03-13 00:13:00,0.0,1.9118,0.0012,402.31,0.30,-1.0,0.0,138.17,26.43,24.58,36.27,0.04,-272.73,-272.73,-48,554,-935,19.9,0.6,-43.5,20.2,0.6,-42.5,5.73,2.53,-37.8,25.8
2012-03-13 00:14:00,0.0,1.9115,0.0010,402.24,0.31,-1.0,0.0,138.17,26.43,24.58,36.27,0.04,-272.73,-272.73,-47,554,-935,19.9,0.6,-43.1,20.2,0.6,-42.5,5.73,2.30,-37.7,25.9
2012-03-13 00:15:00,0.0,1.9117,0.0009,402.27,0.33,-1.0,0.0,138.17,26.43,24.59,36.27,0.04,-272.73,-272.73,-47,554,-935,19.9,0.6,-43.0,20.2,0.6,-42.4,5.73,2.49,-37.7,25.9
2012-03-13 00:16:00,0.0,1.9122,0.0010,402.36,0.32,-1.0,0.0,138.17,26.43,24.59,36.26,0.04,-272.73,-272.73,-48,554,-935,19.9,1.2,-37.1,20.2,1.2,-36.8,5.73,2.42,-37.7,26.0
2012-03-13 00:17:00,0.0,1.9134,0.0009,402.55,0.33,-1.0,0.0,138.17,26.43,24.58,36.26,0.04,-272.73,-272.73,-47,555,-935,19.9,0.8,-39.9,20.2,0.9,-39.0,5.73,2.35,-37.7,25.9
2012-03-13 00:18:00,0.0,1.9131,0.0010,402.37,0.29,-1.0,0.0,138.17,26.43,24.58,36.27,0.04,-272.73,-272.74,-48,554,-935,19.9,0.6,-42.3,20.2,0.7,-41.4,5.73,2.53,-37.7,25.9
2012-03-13 00:19:00,0.0,1.9133,0.0012,402.43,0.28,-1.0,0.0,138.17,26.43,24.59,36.26,0.04,-272.73,-272.74,-48,554,-935,19.9,0.6,-43.1,20.2,0.6,-42.1,5.73,2.30,-37.7,25.9
2012-03-13 00:20:00,0.0,1.9141,0.0010,402.39,0.33,-1.0,0.0,138.17,26.43,24.59,36.26,0.04,-272.73,-272.73,-47,554,-935,19.9,0.6,-43.0,20.2,0.6,-42.0,5.73,2.51,-37.6,26.0
2012-03-13 00:21:00,0.0,1.9139,0.0011,402.32,0.30,-1.0,0.0,138.17,26.43,24.59,36.27,0.04,-272.73,-272.73,-48,555,-935,19.9,0.6,-43.0,20.2,0.6,-42.3,5.73,2.40,-37.6,25.9
2012-03-13 00:22:00,0.0,1.9132,0.0010,402.49,0.31,-1.0,0.0,138.17,26.43,24.58,36.26,0.04,-272.74,-272.73,-48,555,-935,19.9,0.6,-43.0,20.2,0.6,-42.5,5.73,2.36,-37.6,25.9
2012-03-13 00:23:00,0.0,1.9127,0.0012,402.35,0.36,-1.0,0.0,138.17,26.43,24.59,36.27,0.04,-272.73,-272.74,-47,555,-935,19.9,0.6,-43.0,20.2,0.6,-42.4,5.73,2.53,-37.6,26.1
2012-03-13 00:24:00,0.0,1.9123,0.0010,402.39,0.33,-1.0,0.0,138.17,26.42,24.58,36.26,0.04,-272.73,-272.73,-48,554,-935,19.9,0.6,-43.0,20.2,0.6,-42.4,5.73,2.30,-37.6,26.0
2012-03-13 00:25:00,0.0,1.9119,0.0011,402.33,0.31,-1.0,0.0,138.17,26.42,24.59,36.26,0.04,-272.74,-272.74,-48,555,-935,19.9,0.6,-42.9,20.2,0.6,-42.0,5.73,2.51,-37.6,26.1
2012-03-13 00:26:00,0.0,1.9124,0.0010,402.25,0.31,-1.0,0.0,138.17,26.42,24.58,36.27,0.04,-272.73,-272.74,-47,555,-935,19.9,0.6,-43.0,20.2,0.6,-42.0,5.73,2.39,-37.6,26.0
2012-03-13 00:27:00,0.0,1.9128,0.0011,402.37,0.31,-1.0,0.0,138.16,26.42,24.59,36.27,0.04,-272.73,-272.73,-48,555,-935,19.9,0.6,-42.9,20.3,0.6,-41.9,5.73,2.38,-37.6,26.0
2012-03-13 00:28:00,0.0,1.9131,0.0010,402.46,0.28,-1.0,0.0,138.17,26.42,24.59,36.27,0.04,-272.73,-272.74,-48,555,-935,19.9,0.6,-42.5,20.3,0.6,-42.0,5.73,2.52,-37.6,26.0
2012-03-13 00:29:00,0.0,1.9136,0.0012,402.43,0.35,-1.0,0.0,138.17,26.42,24.59,36.26,0.04,-272.73,-272.73,-47,555,-935,20.0,0.6,-42.5,20.3,0.6,-42.0,5.73,2.30,-37.6,26.0
2012-03-13 00:30:00,0.0,1.9137,0.0010,402.41,0.34,-1.0,0.0,138.16,26.42,24.58,36.27,0.04,-272.73,-272.74,-48,555,-935,20.0,0.7,-41.7,20.3,0.7,-40.9,5.73,2.51,-37.6,26.0
2012-03-13 00:31:00,0.0,1.9137,0.0011,402.44,0.30,-1.0,0.0,138.16,26.42,24.59,36.26,0.04,-272.73,-272.73,-48,555,-935,20.0,0.6,-42.4,20.3,0.7,-41.5,5.73,2.39,-37.6,26.0
2012-03-13 00:32:00,0.0,1.9135,0.0010,402.44,0.33,-1.0,0.0,138.17,26.42,24.59,36.26,0.04,-272.73,-272.73,-47,555,-935,20.0,0.6,-42.6,20.3,0.6,-41.8,5.73,2.38,-37.6,26.0
2012-03-13 00:33:00,0.0,1.9135,0.0011,402.49,0.34,-1.0,0.0,138.17,26.42,24.59,36.26,0.04,-272.73,-272.74,-48,555,-935,20.0,0.6,-42.7,20.3,0.6,-42.0,5.73,2.52,-37.5,26.0
2012-03-13 00:34:00,0.0,1.9138,0.0012,402.44,0.30,-1.0,0.0,138.17,26.42,24.58,36.27,0.04,-272.73,-272.73,-47,555,-935,20.0,0.8,-39.7,20.3,0.9,-39.1,5.73,2.30,-37.5,26.0
2012-03-13 00:35:00,0.0,1.9134,0.0012,402.45,0.29,-1.0,0.0,138.17,26.42,24.58,36.26,0.04,-272.73,-272.73,-47,555,-935,20.0,0.7,-41.9,20.3,0.7,-41.0,5.73,2.54,-37.5,26.0
2012-03-13 00:36:00,0.0,1.9124,0.0010,402.31,0.34,-1.0,0.0,138.17,26.41,24.58,36.27,0.04,-272.73,-272.74,-48,555,-935,20.0,0.6,-42.5,20.3,0.7,-41.6,5.73,2.34,-37.5,26.0
2012-03-13 00:37:00,0.0,1.9122,0.0010,402.44,0.29,-1.0,0.0,138.16,26.41,24.59,36.26,0.04,-272.73,-272.73,-47,555,-935,20.0,0.6,-42.2,20.3,0.7,-41.4,5.73,2.43,-37.5,26.0
2012-03-13 00:38:00,0.0,1.9131,0.0011,402.52,0.32,-1.0,0.0,138.17,26.41,24.59,36.26,0.04,-272.73,-272.73,-48,555,-935,20.0,0.7,-41.5,20.3,0.7,-40.7,5.73,2.47,-37.5,26.0
2012-03-13 00:39:00,0.0,1.9130,0.0012,402.59,0.34,-1.0,0.0,138.16,26.41,24.59,36.26,0.04,-272.73,-272.73,-48,555,-935,20.0,0.7,-41.6,20.3,0.7,-41.0,5.73,2.32,-37.5,26.0
2012-03-13 00:40:00,0.0,1.9132,0.0010,402.49,0.27,-1.0,0.0,138.16,26.41,24.59,36.26,0.04,-272.73,-272.73,-47,555,-935,20.0,0.7,-41.7,20.3,0.7,-40.8,5.73,2.54,-37.5,26.1
2012-03-13 00:41:00,0.0,1.9137,0.0010,402.43,0.30,-1.0,0.0,138.16,26.41,24.58,36.27,0.04,-272.73,-272.73,-48,555,-935,20.0,0.7,-41.7,20.3,0.7,-40.8,5.73,2.31,-37.5,26.0
2012-03-13 00:42:00,0.0,1.9138,0.0010,402.37,0.33,-1.0,0.0,138.16,26.41,24.58,36.27,0.04,-272.73,-272.73,-48,555,-935,20.0,0.7,-41.2,20.3,0.7,-40.6,5.73,2.48,-37.5,26.1
2012-03-13 00:43:00,0.0,1.9140,0.0011,402.53,0.31,-1.0,0.0,138.17,26.41,24.59,36.26,0.04,-272.73,-272.74,-47,555,-936,20.0,0.7,-40.9,20.3,0.8,-40.2,5.73,2.41,-37.5,26.1
2012-03-13 00:44:00,0.0,1.9139,0.0011,402.55,0.32,-1.0,0.0,138.17,26.41,24.58,36.27,0.04,-272.73,-272.73,-48,555,-935,20.0,0.7,-41.4,20.3,0.7,-40.8,5.73,2.37,-37.5,26.1
2012-03-13 00:45:00,0.0,1.9138,0.0011,402.52,0.32,-1.0,0.0,138.17,26.41,24.58,36.27,0.04,-272.73,-272.73,-48,555,-935,20.0,0.7,-41.4,20.3,0.7,-40.9,5.73,2.52,-37.5,26.2
2012-03-13 00:46:00,0.0,1.9143,0.0010,402.55,0.29,-1.0,0.0,138.16,26.41,24.58,36.27,0.04,-272.73,-272.73,-47,555,-935,20.0,0.7,-41.3,20.3,0.7,-40.8,5.73,2.30,-37.4,26.2
2012-03-13 00:47:00,0.0,1.9134,0.0012,402.53,0.34,-1.0,0.0,138.17,26.41,24.59,36.27,0.04,-272.73,-272.73,-48,555,-935,20.0,0.7,-41.3,20.3,0.7,-40.8,5.73,2.53,-37.4,26.1
2012-03-13 00:48:00,0.0,1.9138,0.0010,402.51,0.35,-1.0,0.0,138.16,26.41,24.58,36.26,0.04,-272.73,-272.73,-48,555,-935,20.0,0.9,-39.0,20.3,0.9,-38.5,5.73,2.34,-37.4,26.2
2012-03-13 00:49:00,0.0,1.9139,0.0010,402.46,0.26,-1.0,0.0,138.17,26.41,24.58,36.26,0.04,-272.73,-272.73,-48,555,-935,20.0,0.8,-40.4,20.3,0.8,-39.7,5.73,2.45,-37.4,26.1
2012-03-13 00:50:00,0.0,1.9138,0.0011,402.55,0.31,-1.0,0.0,138.17,26.41,24.59,36.26,0.04,-272.73,-272.73,-48,555,-935,20.0,1.0,-37.7,20.3,1.1,-37.2,5.73,2.45,-37.4,26.1
2012-03-13 00:51:00,0.0,1.9138,0.0010,402.46,0.30,-1.0,0.0,138.17,26.41,24.59,36.26,0.04,-272.73,-272.73,-48,555,-935,20.0,0.8,-40.2,20.3,0.8,-39.6,5.73,2.34,-37.4,26.1
2012-03-13 00:52:00,0.0,1.9137,0.0012,402.48,0.32,-1.0,0.0,138.17,26.41,24.59,36.27,0.04,-272.73,-272.74,-48,555,-936,20.0,0.7,-40.9,20.3,0.8,-40.1,5.73,2.53,-37.4,26.1
2012-03-13 00:53:00,0.0,1.9125,0.0010,402.56,0.26,-1.0,0.0,138.17,26.41,24.59,36.26,0.04,-272.73,-272.74,-48,555,-935,20.0,0.7,-40.9,20.3,0.7,-40.5,5.73,2.30,-37.3,26.1
2012-03-13 00:54:00,0.0,1.9130,0.0011,402.56,0.34,-1.0,0.0,138.17,26.41,24.59,36.26,0.04,-272.73,-272.73,-48,555,-935,20.0,0.7,-40.9,20.3,0.7,-40.4,5.73,2.53,-37.3,26.2
2012-03-13 00:55:00,0.0,1.9134,0.0011,402.56,0.31,-1.0,0.0,138.16,26.40,24.59,36.26,0.04,-272.73,-272.74,-48,555,-935,20.0,0.7,-40.9,20.3,0.8,-40.1,5.73,2.35,-37.3,26.1
2012-03-13 00:56:00,0.0,1.9132,0.0011,402.55,0.30,-1.0,0.0,138.16,26.40,24.59,36.26,0.04,-272.74,-272.73,-48,555,-936,20.0,0.7,-41.0,20.3,0.8,-40.1,5.73,2.45,-37.3,26.1
2012-03-13 00:57:00,0.0,1.9149,0.0011,402.50,0.30,-1.0,0.0,138.17,26.40,24.58,36.27,0.04,-272.73,-272.73,-48,555,-935,20.0,0.7,-41.0,20.3,0.8,-40.1,5.73,2.44,-37.3,26.1
2012-03-13 00:58:00,0.0,1.9147,0.0010,402.60,0.26,-1.0,0.0,138.16,26.40,24.59,36.26,0.04,-272.73,-272.73,-48,555,-935,20.0,0.7,-40.9,20.3,0.8,-40.2,5.73,2.35,-37.3,26.2
2012-03-13 00:59:00,0.0,1.9149,0.0010,402.58,0.28,-1.0,0.0,138.16,26.40,24.58,36.26,0.04,-272.73,-272.73,-48,555,-935,20.0,0.8,-40.2,20.3,0.8,-39.6,5.73,2.52,-37.3,26.1
2012-03-13 01:00:00,0.0,1.9149,0.0012,402.60,0.27,-1.0,0.0,138.16,26.41,24.58,36.26,0.04,-272.73,-272.73,-48,555,-935,20.0,0.8,-40.5,20.3,0.8,-39.7,5.73,2.30,-37.3,26.1
2012-03-13 01:01:00,0.0,1.9149,0.0011,402.61,0.30,-1.0,0.0,138.16,26.41,24.59,36.27,0.04,-272.73,-272.73,-48,555,-935,20.0,1.3,-35.6,20.3,1.3,-35.3,5.73,2.54,-37.3,26.1
2012-03-13 01:02:00,0.0,1.9158,0.0010,402.47,0.33,-1.0,0.0,138.17,26.41,24.58,36.27,0.04,-272.74,-272.73,-48,555,-936,20.0,1.0,-38.0,20.3,1.0,-37.3,5.73,2.31,-37.3,26.0
2012-03-13 01:03:00,0.0,1.9153,0.0010,402.64,0.30,-1.0,0.0,138.16,26.41,24.59,36.26,0.04,-272.73,-272.73,-48,555,-935,20.0,0.8,-40.0,20.3,0.8,-39.4,5.73,2.49,-37.2,26.0
2012-03-13 01:04:00,0.0,1.9155,0.0010,402.44,0.30,-1.0,0.0,138.16,26.41,24.58,36.27,0.04,-272.73,-272.73,-48,555,-935,20.1,0.8,-40.3,20.3,0.8,-39.8,5.73,2.40,-37.2,26.0
2012-03-13 01:05:00,0.0,1.9152,0.0011,402.64,0.32,-1.0,0.0,138.16,26.41,24.59,36.26,0.04,-272.73,-272.73,-48,555,-936,20.0,0.8,-40.5,20.3,0.8,-39.7,5.73,2.39,-37.2,26.1
2012-03-13 01:06:00,0.0,1.9149,0.0012,402.60,0.30,-1.0,0.0,138.16,26.41,24.59,36.26,0.04,-272.73,-272.73,-48,555,-935,20.0,0.7,-40.6,20.3,0.8,-39.8,5.73,2.49,-37.2,26.1
2012-03-13 01:07:00,0.0,1.9153,0.0011,402.56,0.29,-1.0,0.0,138.16,26.41,24.58,36.27,0.04,-272.73,-272.73,-47,555,-936,20.1,0.8,-40.1,20.3,0.8,-39.5,5.73,2.31,-37.2,26.1
2012-03-13 01:08:00,0.0,1.9159,0.0012,402.54,0.37,-1.0,0.0,138.16,26.41,24.58,36.26,0.04,-272.73,-272.74,-48,555,-935,20.1,0.8,-40.2,20.3,0.8,-39.6,5.73,2.54,-37.2,26.2
2012-03-13 01:09:00,0.0,1.9159,0.0012,402.38,0.27,-1.0,0.0,138.16,26.41,24.59,36.26,0.04,-272.73,-272.74,-48,556,-936,20.0,0.8,-40.3,20.3,0.8,-39.8,5.73,2.30,-37.2,26.1
2012-03-13 01:10:00,0.0,1.9165,0.0009,402.36,0.31,-1.0,0.0,138.16,26.42,24.58,36.26,0.04,-272.73,-272.74,-47,556,-935,20.0,0.7,-40.6,20.3,0.8,-39.7,5.73,2.51,-37.2,26.2
2012-03-13 01:11:00,0.0,1.9164,0.0011,402.34,0.37,-1.0,0.0,138.16,26.42,24.58,36.27,0.04,-272.73,-272.74,-48,555,-935,20.1,0.8,-40.2,20.3,0.8,-39.7,5.73,2.37,-37.1,26.2
2012-03-13 01:12:00,0.0,1.9160,0.0010,402.34,0.30,-1.0,0.0,138.16,26.42,24.59,36.26,0.04,-272.73,-272.74,-48,555,-935,20.0,0.8,-40.2,20.3,0.8,-39.8,5.73,2.42,-37.1,26.2
2012-03-13 01:13:00,0.0,1.9162,0.0012,402.36,0.28,-1.0,0.0,138.16,26.42,24.58,36.27,0.04,-272.73,-272.74,-48,555,-935,20.1,0.8,-40.2,20.3,0.8,-39.7,5.73,2.45,-37.1,26.2
2012-03-13 01:14:00,0.0,1.9161,0.0011,402.28,0.30,-1.0,0.0,138.16,26.42,24.59,36.27,0.04,-272.73,-272.73,-48,556,-935,20.1,0.8,-40.2,20.3,0.8,-39.7,5.73,2.34,-37.0,26.2
2012-03-13 01:15:00,0.0,1.9154,0.0011,402.35,0.31,-1.0,0.0,138.16,26.42,24.59,36.27,0.04,-272.73,-272.73,-48,556,-935,20.1,0.8,-40.2,20.3,0.8,-39.5,5.73,2.52,-37.0,26.2
2012-03-13 01:16:00,0.0,1.9156,0.0013,402.33,0.28,-1.0,0.0,138.16,26.42,24.59,36.27,0.04,-272.73,-272.73,-48,556,-936,20.1,0.8,-40.1,20.3,0.8,-39.4,5.73,2.30,-37.0,26.2
2012-03-13 01:17:00,0.0,1.9152,0.0011,402.30,0.27,-1.0,0.0,138.16,26.42,24.58,36.27,0.04,-272.73,-272.73,-48,555,-935,20.1,0.8,-40.2,20.4,0.8,-39.4,5.73,2.53,-37.0,26.2
2012-03-13 01:18:00,0.0,1.9154,0.0011,402.30,0.30,-1.0,0.0,138.16,26.42,24.58,36.27,0.04,-272.73,-272.73,-48,556,-936,20.1,0.8,-40.2,20.4,0.8,-39.4,5.73,2.32,-36.9,26.2
2012-03-13 01:19:00,0.0,1.9147,0.0012,402.24,0.32,-1.0,0.0,138.16,26.42,24.58,36.27,0.04,-272.73,-272.73,-48,556,-935,20.1,0.8,-40.2,20.4,0.8,-39.4,5.73,2.48,-36.9,26.3
2012-03-13 01:20:00,0.0,1.9148,0.0010,402.24,0.32,-1.0,0.0,138.16,26.42,24.59,36.27,0.04,-272.73,-272.73,-47,556,-936,20.1,0.8,-40.2,20.4,0.8,-39.4,5.73,2.39,-36.9,26.2
2012-03-13 01:21:00,0.0,1.9153,0.0011,402.40,0.30,-1.0,0.0,138.16,26.43,24.59,36.26,0.04,-272.73,-272.73,-48,556,-935,20.1,0.8,-40.2,20.4,0.8,-39.4,5.73,2.41,-36.9,26.2
2012-03-13 01:22:00,0.0,1.9156,0.0010,402.36,0.29,-1.0,0.0,138.16,26.43,24.58,36.27,0.04,-272.73,-272.73,-48,556,-935,20.1,0.8,-40.3,20.4,0.8,-39.7,5.73,2.45,-36.9,26.2
2012-03-13 01:23:00,0.0,1.9145,0.0009,402.36,0.33,-1.0,0.0,138.16,26.43,24.59,36.26,0.04,-272.73,-272.73,-48,556,-935,20.1,0.8,-40.2,20.4,0.8,-39.4,5.73,2.36,-36.9,26.1
2012-03-13 01:24:00,0.0,1.9143,0.0011,402.42,0.33,-1.0,0.0,138.16,26.43,24.59,36.26,0.04,-272.73,-272.73,-48,556,-935,20.1,0.8,-40.2,20.4,0.8,-39.4,5.73,2.50,-36.9,26.1
2012-03-13 01:25:00,0.0,1.9149,0.0010,402.54,0.38,-1.0,0.0,138.16,26.43,24.59,36.26,0.04,-272.73,-272.73,-48,556,-935,20.2,0.8,-40.0,20.4,0.8,-39.4,5.73,2.32,-36.8,26.0
"startDT [UTC]","vpos","CH4 [ppm]","stdev(CH4) [ppm]","CO2 [ppm]","stdev(CO2) [ppm]","H2O [ppm]","stdev(H2O)","p_LGR [torr]","T_LGR [C]","mt1_LGR [us]","mt2_LGR [us]","T_ECpre [C]","T_EC1 [C]","T_EC2 [C]","p_inlet [hPa]","p_in [hPa]","p_out [hPa]","T_inlet [C]","RH_inlet [%]","dwpt_inlet [C]","T_vent [C]","RH_vent [%]","dwpt_vent [C]","flow_vent [l min-1]","flow_inlet [l min-1]","dwpt_sample [C]","T_room [C]"
2012-03-13 01:29:00,0.0,1.9144,0.0011,402.37,0.37,-1.0,0.0,138.17,26.43,24.59,36.26,0.04,-272.73,-272.73,-48,556,-935,20.0,0.8,-40.2,20.3,0.8,-39.5,5.73,2.47,-37.1,25.4
2012-03-13 01:30:00,0.0,1.9126,0.0010,402.30,0.33,-1.0,0.0,138.18,26.42,24.59,36.26,0.04,-272.73,-272.74,-48,555,-935,20.0,0.8,-40.2,20.1,0.8,-39.9,5.73,2.44,-37.3,25.3
2012-03-13 01:31:00,0.0,1.9118,0.0013,402.29,0.32,-1.0,0.0,138.18,26.40,24.59,36.27,0.04,-272.73,-272.73,-48,554,-935,19.9,0.8,-40.3,20.0,0.8,-39.9,5.73,2.42,-37.5,25.3
2012-03-13 01:32:00,0.0,1.9120,0.0013,402.41,0.25,-1.0,0.0,138.18,26.38,24.58,36.26,0.04,-272.74,-272.73,-48,554,-935,19.8,0.8,-40.5,19.9,0.8,-40.0,5.73,2.39,-37.6,25.2
2012-03-13 01:33:00,0.0,1.9122,0.0012,402.35,0.35,-1.0,0.0,138.18,26.35,24.58,36.26,0.04,-272.74,-272.74,-48,553,-935,19.7,0.9,-39.1,19.8,0.9,-38.6,5.73,2.38,-37.7,25.1
2012-03-13 01:34:00,0.0,1.9114,0.0011,402.38,0.31,-1.0,0.0,138.19,26.33,24.59,36.26,0.04,-272.73,-272.73,-48,553,-935,19.7,0.8,-40.3,19.7,0.8,-39.7,5.73,2.39,-37.8,25.1
2012-03-13 01:35:00,0.0,1.9125,0.0011,402.21,0.31,-1.0,0.0,138.19,26.30,24.58,36.26,0.04,-272.73,-272.73,-48,552,-935,19.6,0.8,-40.7,19.6,0.8,-40.2,5.73,2.41,-37.9,25.0
2012-03-13 01:36:00,0.0,1.9129,0.0010,402.37,0.31,-1.0,0.0,138.19,26.28,24.59,36.26,0.04,-272.73,-272.73,-48,552,-935,19.5,0.8,-40.8,19.6,0.8,-40.4,5.73,2.45,-37.9,25.0
2012-03-13 01:37:00,0.0,1.9130,0.0008,402.33,0.25,-1.0,0.0,138.20,26.25,24.59,36.26,0.04,-272.73,-272.73,-48,552,-935,19.5,0.7,-41.3,19.5,0.8,-40.4,5.73,2.46,-38.0,24.9
2012-03-13 01:38:00,0.0,1.9131,0.0009,402.40,0.30,-1.0,0.0,138.21,26.23,24.59,36.25,0.04,-272.73,-272.73,-48,551,-935,19.4,0.7,-41.3,19.4,0.8,-40.6,5.73,2.48,-38.1,24.8
2012-03-13 01:39:00,0.0,1.9131,0.0011,402.29,0.26,-1.0,0.0,138.21,26.20,24.59,36.25,0.04,-272.73,-272.73,-47,551,-935,19.4,0.7,-41.2,19.4,0.8,-40.6,5.73,2.48,-38.1,24.8
2012-03-13 01:40:00,0.0,1.9130,0.0010,402.21,0.31,-1.0,0.0,138.21,26.17,24.58,36.25,0.04,-272.73,-272.73,-47,551,-935,19.3,0.7,-41.2,19.3,0.8,-40.6,5.73,2.47,-38.2,24.7
2012-03-13 01:41:00,0.0,1.9126,0.0010,402.07,0.29,-1.0,0.0,138.21,26.14,24.58,36.25,0.04,-272.73,-272.74,-47,551,-934,19.3,0.7,-41.3,19.3,0.8,-40.7,5.73,2.46,-38.3,24.7
2012-03-13 01:42:00,0.0,1.9125,0.0009,402.10,0.27,-1.0,0.0,138.21,26.12,24.58,36.25,0.04,-272.73,-272.73,-47,550,-934,19.2,0.8,-41.0,19.2,0.8,-40.7,5.73,2.45,-38.3,24.7
2012-03-13 01:43:00,0.0,1.9129,0.0010,402.19,0.27,-1.0,0.0,138.22,26.09,24.58,36.25,0.04,-272.73,-272.73,-47,550,-934,19.2,0.8,-41.0,19.2,0.8,-40.4,5.73,2.44,-38.3,24.6
2012-03-13 01:44:00,0.0,1.9127,0.0011,402.09,0.31,-1.0,0.0,138.22,26.06,24.58,36.25,0.04,-272.73,-272.73,-47,550,-934,19.1,0.8,-40.3,19.2,0.9,-39.8,5.73,2.43,-38.4,24.6
2012-03-13 01:45:00,0.0,1.9133,0.0013,402.36,0.32,-1.0,0.0,138.22,26.04,24.58,36.25,0.04,-272.73,-272.73,-47,550,-934,19.1,0.8,-40.7,19.1,0.8,-40.3,5.73,2.41,-38.4,24.5
2012-03-13 01:46:00,0.0,1.9149,0.0008,402.79,0.28,-1.0,0.0,138.22,26.02,24.58,36.24,0.04,-272.73,-272.73,-47,550,-934,19.1,0.8,-40.8,19.1,0.8,-40.4,5.73,2.41,-38.5,24.4
2012-03-13 01:47:00,0.0,1.9144,0.0013,402.70,0.27,-1.0,0.0,138.22,25.99,24.58,36.25,0.04,-272.73,-272.73,-47,549,-934,19.0,0.8,-41.0,19.0,0.8,-40.4,5.73,2.42,-38.5,24.4
2012-03-13 01:48:00,0.0,1.9145,0.0008,402.70,0.25,-1.0,0.0,138.22,25.96,24.58,36.25,0.04,-272.73,-272.73,-47,549,-934,19.0,0.8,-41.1,19.0,0.8,-40.5,5.73,2.43,-38.5,24.3
2012-03-13 01:49:00,0.0,1.9139,0.0010,402.80,0.24,-1.0,0.0,138.22,25.94,24.58,36.24,0.04,-272.73,-272.73,-47,549,-934,18.9,0.8,-41.0,18.9,0.8,-40.5,5.73,2.43,-38.6,24.2
2012-03-13 01:50:00,0.0,1.9138,0.0011,402.66,0.29,-1.0,0.0,138.22,25.91,24.58,36.25,0.04,-272.73,-272.73,-47,549,-934,18.9,0.8,-41.1,18.9,0.8,-40.5,5.73,2.43,-38.6,24.2
2012-03-13 01:51:00,0.0,1.9137,0.0010,402.72,0.26,-1.0,0.0,138.22,25.89,24.58,36.24,0.04,-272.73,-272.73,-47,549,-934,18.9,0.8,-40.8,18.9,0.8,-40.5,5.73,2.44,-38.6,24.1
2012-03-13 01:52:00,0.0,1.9139,0.0010,402.67,0.28,-1.0,0.0,138.22,25.87,24.58,36.24,0.04,-272.73,-272.73,-47,548,-933,18.8,0.8,-40.2,18.8,0.9,-39.7,5.73,2.45,-38.7,24.1
2012-03-13 01:53:00,0.0,1.9135,0.0010,402.72,0.25,-1.0,0.0,138.23,25.84,24.58,36.24,0.04,-272.73,-272.74,-47,548,-934,18.8,0.8,-40.5,18.8,0.9,-39.9,5.73,2.46,-38.6,24.0
2012-03-13 01:54:00,0.0,1.9135,0.0010,402.68,0.25,-1.0,0.0,138.22,25.82,24.58,36.24,0.04,-272.74,-272.73,-47,549,-933,18.8,0.8,-40.3,18.7,0.9,-39.9,5.73,2.46,-38.7,24.0
2012-03-13 01:55:00,0.0,1.9136,0.0010,402.74,0.26,-1.0,0.0,138.23,25.79,24.58,36.24,0.04,-272.73,-272.73,-47,548,-933,18.7,0.8,-40.2,18.7,0.9,-39.7,5.73,2.47,-38.6,24.0
2012-03-13 01:56:00,0.0,1.9135,0.0009,402.80,0.29,-1.0,0.0,138.22,25.77,24.58,36.23,0.04,-272.73,-272.73,-47,548,-933,18.7,0.9,-40.0,18.7,0.9,-39.6,5.73,2.48,-38.7,23.9
2012-03-13 01:57:00,0.0,1.9134,0.0010,402.85,0.30,-1.0,0.0,138.23,25.75,24.58,36.23,0.04,-272.73,-272.73,-47,548,-933,18.7,0.9,-39.5,18.7,1.0,-39.0,5.73,2.48,-38.6,23.9
2012-03-13 01:58:00,0.0,1.9133,0.0011,402.81,0.26,-1.0,0.0,138.23,25.73,24.58,36.24,0.04,-272.73,-272.73,-47,548,-933,18.7,0.9,-39.4,18.7,1.0,-38.9,5.73,2.47,-38.7,23.8
2012-03-13 01:59:00,0.0,1.9135,0.0007,402.82,0.26,-1.0,0.0,138.23,25.71,24.58,36.24,0.04,-272.73,-272.73,-47,548,-933,18.7,0.9,-39.6,18.7,1.0,-39.0,5.73,2.47,-38.6,23.8
2012-03-13 02:00:00,1.0,1.8884,0.0179,387.02,11.00,-1.0,0.0,138.23,25.69,24.58,36.25,0.04,-272.73,-272.73,-46,531,-933,18.7,0.9,-39.6,18.7,1.0,-39.1,5.73,2.44,-38.6,23.7
2012-03-13 02:01:00,1.0,1.8680,0.0009,374.81,0.26,-1.0,0.0,138.23,25.67,24.58,36.25,0.04,-272.73,-272.73,-47,529,-933,18.7,0.9,-39.6,18.7,1.0,-39.0,5.73,2.45,-38.7,23.7
2012-03-13 02:02:00,1.0,1.8680,0.0008,374.77,0.21,-1.0,0.0,138.23,25.65,24.58,36.26,0.04,-272.73,-272.73,-47,529,-933,18.7,0.9,-39.6,18.7,1.0,-39.1,5.73,2.44,-38.6,23.7
2012-03-13 02:03:00,1.0,1.8680,0.0009,374.81,0.23,-1.0,0.0,138.23,25.64,24.58,36.25,0.04,-272.73,-272.73,-46,529,-933,18.7,0.9,-39.9,18.7,0.9,-39.4,5.73,2.44,-38.6,23.6
2012-03-13 02:04:00,1.0,1.8677,0.0010,374.78,0.28,-1.0,0.0,138.23,25.61,24.58,36.25,0.04,-272.73,-272.73,-47,529,-933,18.7,0.9,-40.0,18.7,0.9,-39.3,5.73,2.42,-38.7,23.6
2012-03-13 02:05:00,1.0,1.8682,0.0009,374.82,0.27,-1.0,0.0,138.23,25.60,24.58,36.25,0.04,-272.73,-272.73,-47,530,-933,18.7,0.8,-40.1,18.7,0.9,-39.6,5.73,2.41,-38.6,23.7
2012-03-13 02:06:00,1.0,1.8684,0.0009,374.90,0.24,-1.0,0.0,138.22,25.58,24.58,36.24,0.04,-272.73,-272.73,-47,530,-933,18.8,0.9,-40.0,18.7,0.9,-39.5,5.73,2.39,-38.5,23.8
2012-03-13 02:07:00,4.0,1.8400,0.0190,382.28,4.97,-1.0,0.0,138.22,25.57,24.58,36.25,0.04,-272.73,-272.74,-46,508,-933,18.8,0.8,-40.1,18.8,0.9,-39.6,5.73,2.43,-38.4,23.9
2012-03-13 02:08:00,4.0,1.8197,0.0010,388.08,0.28,-1.0,0.0,138.21,25.57,24.58,36.24,0.04,-272.73,-272.73,-46,502,-933,18.8,0.9,-39.9,18.9,0.9,-39.3,5.73,2.42,-38.3,23.9
2012-03-13 02:09:00,4.0,1.8205,0.0008,388.16,0.22,-1.0,0.0,138.21,25.56,24.58,36.25,0.04,-272.73,-272.73,-46,499,-933,18.9,0.9,-39.7,18.9,0.9,-39.2,5.73,2.46,-38.2,23.9
2012-03-13 02:10:00,4.0,1.8210,0.0010,388.28,0.23,-1.0,0.0,138.21,25.57,24.58,36.24,0.04,-272.73,-272.73,-46,498,-933,18.9,0.9,-39.7,18.9,0.9,-39.2,5.73,2.48,-38.1,24.0
2012-03-13 02:11:00,4.0,1.8214,0.0010,388.29,0.27,-1.0,0.0,138.20,25.57,24.58,36.25,0.04,-272.73,-272.73,-46,497,-933,19.0,0.9,-39.8,19.0,0.9,-39.2,5.73,2.48,-38.0,24.0
2012-03-13 02:12:00,4.0,1.8216,0.0011,388.51,0.27,-1.0,0.0,138.20,25.57,24.58,36.24,0.04,-272.73,-272.73,-46,496,-933,19.0,0.9,-39.8,19.0,0.9,-39.2,5.73,2.45,-37.9,24.1
2012-03-13 02:13:00,4.0,1.8217,0.0011,388.56,0.22,-1.0,0.0,138.20,25.58,24.58,36.25,0.04,-272.73,-272.73,-46,496,-933,19.1,0.9,-39.8,19.0,0.9,-39.2,5.73,2.40,-37.8,24.1
2012-03-13 02:14:00,5.0,1.7193,0.0642,365.01,14.56,-1.0,0.0,138.20,25.58,24.58,36.26,0.04,-272.73,-272.73,-47,735,-933,19.1,0.9,-39.7,19.1,0.9,-39.1,5.73,2.41,-37.6,24.2
2012-03-13 02:15:00,5.0,1.6519,0.0009,349.79,0.25,-1.0,0.0,138.20,25.59,24.58,36.26,0.04,-272.73,-272.73,-47,744,-933,19.1,0.9,-39.7,19.1,0.9,-39.1,5.73,2.37,-37.6,24.3
2012-03-13 02:16:00,5.0,1.6510,0.0009,349.88,0.23,-1.0,0.0,138.20,25.59,24.58,36.26,0.04,-272.73,-272.73,-47,751,-933,19.2,0.9,-39.6,19.2,0.9,-39.2,5.73,2.42,-37.6,24.4
2012-03-13 02:17:00,5.0,1.6515,0.0009,349.87,0.24,-1.0,0.0,138.20,25.60,24.58,36.26,0.04,-272.73,-272.74,-47,743,-933,19.2,0.9,-39.5,19.2,0.9,-39.0,5.73,2.48,-37.5,24.4
2012-03-13 02:18:00,5.0,1.6512,0.0008,349.91,0.21,-1.0,0.0,138.20,25.60,24.58,36.26,0.04,-272.73,-272.73,-47,738,-933,19.3,0.9,-39.5,19.3,0.9,-39.0,5.73,2.49,-37.5,24.4
2012-03-13 02:19:00,5.0,1.6507,0.0008,349.85,0.21,-1.0,0.0,138.20,25.61,24.59,36.27,0.04,-272.73,-272.73,-47,737,-933,19.3,0.9,-39.6,19.3,0.9,-39.0,5.73,2.45,-37.4,24.5